Tracking 22879 objects as of 22-Apr-2021
HD Live streaming from Space Station
objects crossing your sky now

OBJECT P

Track OBJECT P now!
10-day predictions


NORAD ID: 43862
Int'l Code: 2018-104P
Perigee: 490.0 km
Apogee: 513.7 km
Inclination: 85.0 °
Period: 94.5 minutes
Semi major axis: 6872 km
RCS: Unknown
Launch date: December 16, 2018
Source: United States (US)
Launch site: Rocket Lab Launch Complex (RLLC)
aabbcc
Your satellite tracking list
Your tracking list is empty




NASA's NSSDC Master Catalog

Two Line Element Set (TLE):
1 43862U 18104P   21112.15475484  .00002379  00000-0  97147-4 0  9995
2 43862  85.0387 331.5721 0017262  17.3791 342.8039 15.23687000130492
Source of the keplerian elements: Caltech